SL-14 DEB

Satellite information

Favourite Embed

Satellite Type and Status

DEBRISIN ORBIT

Key statistics

Satellite SL-14 DEB at a glance.

Uptime

12497

Days in orbit

Revolutions

≈ 14.3

Per day

Orbit

LEO

Low Earth Orbit

Inclination

82.5

Latest

Satellite identification and parameters

Extended collection of information and parameters for SL-14 DEB.

Object identification

Identified? True

Debris? True

Object name: SL-14 DEB

International designator: 1991-056BP

Object number (NORAD): 45325

Object ID (CCSDS): 45325

Country: COMMONWEALTH OF INDEPENDENT STATES (CIS)

Current information (Y/N): Y

RCS size: SMALL

Orbital parameters

Period: 100.81 minutes

Inclination: 82.536 deg

SMA: 7175.128 km

Apoapsis: 867.697 km

Periapsis: 726.289 km

RAAN: 133.0466 deg

Eccentricy: 0.0098541

Argument of periapsis: 25.8009 deg

Mean anomaly: 334.8041 deg

Mean motion: 14.28427754 rev/day

Mean motion (dot): 0.00047919 rev/day2

B* drag term: 0.018071 1/REarth

Two-line elements (TLE)

Creation date: Oct. 31, 2025, 6:16 p.m.

Reference frame: TEME

Reference center: EARTH

Epoch: Oct. 31, 2025, 1:15 p.m. UTC

TLE line 0: 0 SL-14 DEB

TLE line 1: 1 45325U 91056BP 25304.55230413 .00047919 00000-0 18071-1 0 9995

TLE line 2: 2 45325 82.5360 133.0466 0098541 25.8009 334.8041 14.28427754285540

Live tracking on map

Real-time ground track for satellite SL-14 DEB.

In-orbit conjunctions

A list of the most updated potential collisions computed for object SL-14 DEB.

Target Orbit TCA Probability of collision Miss distance Type
FENGYUN 1C DEB SSO 2024-09-28 07:41:35 0.0007209007 206.0 (m) DEBRIS
SL-8 R/B LEO 2024-07-14 23:09:52 0.001409961 108.0 (m) ROCKET BODY

Associated space launch

Third generation meteorological satellite

SL-14 DEB was lifted into orbit during the mission ‘Tsiklon-3 | Meteor-3 5’, on board a Tsiklon-3 space rocket.

The launch took place on Aug. 15, 1991, 9:15 a.m. from 32/2.

For more information about the launch, click the button.

Launch to space Tsiklon-3 | Meteor-3 5
Tsiklon-3 | Meteor-3 5

Agency: N/A

Status: Launch Successful

Launch date: Aug. 15, 1991, 9:15 a.m. UTC

Rocket: Tsiklon-3

Launch pad: 32/2

Location: Plesetsk Cosmodrome, Russian Federation

...

Latest news about this satellite

There are no fresh news available about this satellite. Check back as we update our databases every day.


Newsletter sign-up

Weekly statistics, charts and insights to help you stay on top of the space industry.